GFSSGP_925_temp_207.txt.gz
Temp
23 22 23 22 21 19 22 24 23 24 24 21 22 22 22 21 23 22 20 21 21 20 19 20 20 20 19 19 19 19 18 18 19 19 18 18 18 18 18 18 17 17 17 17 17 17 17 18 18
22 22 22 17 20 21 22 22 24 23 22 20 21 21 20 21 21 19 19 20 20 21 20 20 20 19 19 19 18 18 18 19 19 19 19 19 18 18 17 18 18 18 18 17 17 17 17 17 17
22 21 19 18 18 22 22 23 22 22 20 23 21 20 20 20 20 20 21 20 20 20 20 20 20 19 19 19 19 19 19 19 19 19 19 18 18 17 17 17 17 17 17 17 17 16 16 17 17
22 20 17 20 23 24 24 22 22 22 23 22 20 20 20 21 21 21 20 20 20 20 20 20 20 19 19 19 19 19 19 18 18 18 18 18 17 16 16 16 16 16 16 16 16 16 16 16 17
20 16 19 20 23 24 22 22 21 24 23 22 22 20 20 20 21 21 20 20 20 20 20 20 20 20 19 19 19 18 18 18 18 18 17 16 16 16 15 15 16 15 14 14 14 14 14 14 15
18 16 19 21 22 24 24 23 23 23 22 21 19 19 19 20 20 20 20 20 20 21 20 20 20 19 19 19 18 18 18 18 17 17 17 17 16 16 15 15 15 14 14 14 14 14 14 14 14
19 18 20 20 22 24 24 22 23 22 22 23 19 19 19 20 20 20 20 20 20 20 20 19 19 19 19 18 18 18 17 17 17 17 16 16 16 15 15 15 15 14 14 14 14 14 14 14 13
16 17 20 21 20 22 23 23 22 22 23 21 21 19 19 19 20 20 19 19 19 19 19 19 19 18 18 18 17 17 17 17 16 16 16 15 15 15 15 15 15 14 14 14 13 13 13 13 14
17 18 19 21 20 23 22 23 22 21 21 20 19 18 19 20 20 19 19 18 18 18 18 18 18 18 18 17 17 17 16 16 16 16 15 15 15 15 14 14 14 14 14 14 14 13 13 13 14
18 17 20 20 20 21 21 23 22 22 21 20 19 19 18 19 19 18 17 17 17 17 18 18 18 18 17 17 17 16 16 16 16 15 15 15 15 14 14 14 14 14 13 13 13 13 13 13 13
18 19 20 20 20 20 21 21 21 21 21 19 19 18 17 18 18 18 17 17 17 17 17 17 17 16 16 16 16 16 16 16 15 15 15 14 14 14 14 14 13 13 13 13 13 13 13 12 12
21 19 20 20 20 20 21 21 21 19 22 19 18 17 17 15 15 16 16 17 17 17 17 17 16 16 16 15 15 15 15 15 15 15 14 14 14 14 14 13 13 12 12 12 12 12 11 11 11
20 19 19 19 19 19 20 21 20 19 19 17 16 16 16 14 15 16 16 16 16 16 16 15 15 15 15 15 15 15 15 15 14 14 14 14 14 13 13 13 12 12 12 11 11 11 11 11 11
18 18 19 19 19 19 20 20 20 20 16 17 16 16 15 14 15 15 15 15 15 15 15 15 15 15 15 15 15 15 15 14 14 14 14 14 13 13 13 12 12 12 11 11 10 10 10 10 10
17 19 19 19 19 19 19 20 18 19 16 16 16 15 14 13 14 15 16 16 16 15 15 15 15 15 14 14 14 14 14 14 14 14 14 13 13 13 12 12 12 11 11 10 10 10 10 10 10
18 17 18 19 18 19 19 20 21 17 15 15 15 14 14 13 14 16 16 16 15 15 15 15 14 14 14 14 14 14 14 14 14 14 14 13 13 13 12 12 12 11 11 10 10 10 10 10 10
16 17 18 19 17 18 19 19 20 16 15 15 14 13 12 12 13 15 16 16 15 15 15 15 14 14 14 14 14 14 14 14 13 13 13 13 13 12 12 12 11 11 11 10 10 10 9 9 9
17 18 19 19 17 17 18 16 16 16 16 15 14 13 12 12 12 14 15 15 15 15 15 14 14 14 14 14 14 14 14 13 13 13 12 12 12 12 12 11 11 10 10 10 10 9 9 9 9
17 18 20 17 16 17 16 15 17 16 14 13 13 12 12 12 13 15 15 15 15 14 14 14 14 14 14 14 14 14 13 13 13 12 12 12 12 12 11 11 11 10 10 9 9 9 8 9 8
18 18 18 17 16 15 14 15 16 16 15 14 14 12 11 11 11 12 14 14 14 15 14 14 14 14 14 13 13 12 12 12 12 12 12 11 11 11 11 11 10 10 10 9 9 8 8 8 8
13 17 16 16 14 15 12 15 16 18 16 16 14 12 12 11 11 10 12 13 14 14 14 14 14 14 13 13 13 12 12 12 12 11 11 11 11 11 11 11 10 10 9 9 9 8 8 7 8
17 13 14 14 12 14 12 14 15 17 15 15 13 12 13 11 11 11 11 12 13 14 14 14 14 13 13 13 12 12 11 10 11 10 10 11 11 11 11 11 10 10 9 9 8 8 8 7 7
14 13 13 12 9 9 13 9 14 15 17 16 14 12 11 10 9 9 10 13 14 14 14 14 13 13 13 12 12 12 11 11 11 10 10 10 10 10 11 11 10 9 9 9 9 8 8 7 7
11 11 9 7 7 8 11 10 12 17 19 17 16 14 12 11 9 10 12 13 14 14 14 14 13 13 13 13 12 12 11 11 10 10 10 10 10 10 10 10 10 9 9 9 9 8 8 8 7
11 9 9 11 9 13 5 7 14 16 15 15 16 14 11 11 9 10 10 11 13 13 13 13 13 13 13 12 12 12 11 11 10 10 10 9 9 9 9 9 9 9 9 9 8 8 8 7 7
9 8 10 13 11 10 6 10 14 14 13 12 12 14 12 11 9 9 9 11 13 13 13 13 13 13 13 13 12 12 11 11 10 10 10 9 9 9 9 9 9 8 8 8 8 8 8 8 7
10 8 8 3 -2 5 7 11 13 13 14 13 13 11 11 10 9 9 10 11 12 13 13 13 13 13 13 13 12 12 12 11 11 10 10 10 9 9 9 8 9 8 8 8 8 8 7 7 7
10 8 9 4 11 9 9 11 11 13 12 12 12 10 10 10 9 9 9 11 13 13 14 13 14 14 14 13 12 12 12 11 11 10 10 10 10 9 9 9 8 8 8 8 8 8 8 8 8
8 6 7 6 6 7 7 10 9 7 12 12 11 10 10 9 9 9 9 12 13 14 13 14 13 13 13 13 13 12 12 11 11 10 10 10 10 9 9 8 8 8 8 8 7 7 7 7 7
9 10 9 7 8 3 4 8 12 11 12 12 12 11 11 10 9 9 9 11 12 13 13 13 13 13 13 13 13 12 12 11 11 11 10 10 10 9 9 8 8 8 8 7 7 7 7 7 7

GFSSGP_925_temp_213.txt.gz
Temp
22 22 22 21 24 21 23 24 23 24 24 22 22 23 24 22 24 25 19 19 21 21 20 19 19 19 19 18 18 18 18 18 18 18 18 17 16 16 16 16 16 16 16 16 16 16 16 16 16
22 22 22 18 22 24 24 23 23 23 22 21 22 22 23 23 21 18 19 20 21 20 19 19 19 19 19 18 18 18 18 18 18 18 18 17 16 16 15 15 15 15 15 15 15 15 16 16 17
21 21 21 19 20 23 23 23 23 22 20 22 22 20 21 21 20 20 19 20 20 20 19 19 19 19 19 18 18 19 19 18 18 18 18 16 15 15 15 15 15 15 14 15 15 15 15 15 15
21 20 18 22 23 23 24 23 22 21 21 21 21 22 20 19 19 20 19 20 20 19 19 19 19 19 19 19 19 19 18 18 18 17 15 15 15 15 15 14 14 14 14 14 14 14 14 14 14
20 18 21 21 22 22 22 22 21 22 22 21 21 21 20 19 20 19 20 19 20 19 19 19 19 19 19 19 18 18 18 17 17 16 16 16 15 15 14 14 14 14 14 14 14 14 14 14 14
19 18 21 22 21 22 22 21 22 23 22 20 21 20 20 18 18 18 19 19 19 19 19 19 19 19 19 18 18 18 17 17 16 16 16 16 16 16 15 15 14 14 14 14 14 13 13 13 13
20 20 21 21 21 22 23 20 22 22 22 22 21 21 20 18 18 18 18 18 18 19 19 19 18 18 18 18 17 17 17 16 16 16 16 16 16 16 15 15 15 15 14 14 13 13 13 12 14
17 19 19 20 22 23 22 21 21 22 22 19 20 22 21 19 18 18 18 18 18 18 18 18 18 18 18 17 17 17 16 16 16 16 16 15 15 15 15 15 15 15 14 14 13 13 13 14 14
16 20 20 21 20 23 20 22 20 20 20 20 20 19 19 19 17 17 17 17 17 18 18 18 18 18 17 17 16 16 16 16 15 15 15 15 15 15 15 15 14 14 14 14 13 13 13 13 13
19 19 21 20 19 21 21 21 20 21 20 20 20 18 17 17 16 16 16 16 17 17 18 18 17 17 17 17 16 16 16 15 15 15 15 15 15 15 14 14 14 14 13 13 13 13 13 13 13
17 20 19 20 19 19 20 21 20 20 21 21 20 19 16 16 16 16 16 17 18 18 18 17 17 17 17 17 16 16 16 15 15 15 15 14 14 14 14 13 13 13 13 13 13 13 12 12 12
21 19 19 18 19 18 20 20 20 19 22 20 19 18 16 16 16 16 16 17 17 17 17 17 17 16 16 16 15 15 15 15 15 14 14 14 14 14 13 13 13 13 13 12 12 12 12 12 12
19 18 18 18 18 18 19 20 20 18 18 18 17 16 16 16 16 16 17 17 17 17 17 16 16 16 15 15 15 15 15 14 14 14 14 14 14 13 13 13 12 12 12 12 12 11 11 11 11
17 17 17 18 18 18 20 20 20 20 17 17 16 16 16 16 15 15 15 16 16 16 16 15 15 15 15 15 15 14 14 14 14 14 14 13 13 13 13 12 12 12 12 11 11 11 11 11 11
16 18 19 17 18 18 17 20 18 18 17 17 16 16 15 15 15 15 16 16 16 16 15 15 15 14 15 14 14 14 14 14 14 14 13 13 13 13 12 12 12 11 11 11 11 11 11 11 11
17 17 19 18 18 18 19 21 20 16 17 18 16 15 14 15 14 15 16 16 16 15 15 15 15 15 14 14 14 14 14 14 14 14 13 13 13 12 12 12 11 11 11 10 10 10 11 11 10
16 18 18 19 15 17 18 20 19 15 16 16 16 15 15 15 13 15 16 16 16 15 15 15 14 14 14 14 14 14 14 14 13 13 13 12 12 12 12 11 11 11 10 10 10 10 9 10 10
17 18 17 18 16 16 17 17 17 16 16 16 16 15 14 14 15 15 15 15 15 15 15 14 14 14 14 14 14 14 14 13 13 13 12 12 12 12 11 11 10 10 10 10 10 10 9 9 9
16 17 18 16 14 16 15 15 17 16 15 16 16 15 15 14 14 15 15 14 14 14 14 14 14 14 14 14 13 14 14 13 13 12 12 12 12 11 11 11 10 10 10 10 9 9 9 8 9
17 17 17 15 14 15 13 16 17 16 16 16 17 15 14 13 13 12 13 13 14 14 14 14 14 14 14 14 14 14 13 13 12 12 12 11 11 11 11 11 10 10 10 9 9 9 8 8 8
14 17 15 17 14 12 12 17 18 18 14 15 14 13 13 13 13 11 11 11 13 13 14 14 14 14 14 13 13 13 12 12 12 12 12 11 11 11 11 10 10 10 10 9 9 8 8 7 7
17 12 14 15 14 17 11 18 17 18 17 16 14 12 12 12 11 10 10 10 12 14 14 14 14 14 13 13 12 12 12 12 12 12 12 11 11 10 10 10 10 10 9 9 9 8 8 7 7
13 12 12 12 11 12 14 14 18 15 19 18 14 12 12 11 10 11 10 11 12 13 14 14 13 13 13 13 13 12 12 12 12 11 11 11 11 10 10 10 10 9 9 9 9 8 8 7 7
9 11 10 8 10 12 10 13 16 18 18 17 14 12 11 10 10 10 10 11 12 13 13 13 13 13 13 13 12 12 12 12 11 11 11 11 11 10 10 10 9 9 9 9 8 8 8 8 7
11 10 11 14 12 15 4 10 16 14 13 13 12 12 11 10 10 10 10 9 11 12 13 13 13 13 13 12 12 12 12 12 11 11 11 11 11 10 10 9 9 9 9 8 8 8 8 7 7
9 10 12 15 14 13 5 12 15 12 10 10 11 10 10 10 10 10 10 10 11 12 13 13 13 13 13 12 12 12 12 11 11 11 11 11 11 11 10 9 9 9 9 8 8 8 8 7 7
10 9 8 4 -1 9 10 12 15 11 10 10 10 10 10 10 10 10 10 11 12 12 13 13 13 13 13 13 12 12 12 12 12 12 11 11 11 10 10 10 9 9 9 8 8 8 8 7 7
10 8 10 6 13 11 11 11 12 11 11 11 10 10 9 9 9 9 9 10 11 12 12 12 12 13 13 13 12 12 12 12 12 11 11 11 11 11 10 10 10 9 8 8 8 8 7 7 7
8 7 7 7 8 10 11 12 8 9 10 12 10 9 9 8 8 8 8 9 10 11 11 11 12 12 12 12 12 12 12 12 11 11 11 11 11 10 10 10 9 9 9 8 8 7 7 7 7
9 10 9 9 9 4 6 9 10 9 10 10 9 8 8 8 8 7 7 8 8 9 10 10 11 11 12 12 12 12 12 11 11 11 11 11 11 10 10 9 9 9 9 9 8 7 7 7 7

GFSSGP_925_temp_216.txt.gz
Temp
21 21 21 24 27 28 29 29 29 28 28 28 28 28 29 27 28 28 22 21 22 22 21 19 19 19 19 18 18 18 18 18 18 18 18 17 16 16 16 16 16 16 16 16 16 16 15 15 16
20 21 23 26 28 28 30 28 28 29 28 27 27 27 28 27 25 23 23 21 22 21 21 20 19 19 18 18 18 18 18 18 18 18 18 17 16 16 15 15 15 15 15 15 15 15 15 15 15
20 21 27 28 27 29 29 28 29 26 26 27 27 26 27 26 24 24 22 21 21 20 20 19 19 19 19 18 18 18 18 18 18 17 17 16 16 15 15 15 15 15 15 15 15 15 15 14 15
22 25 26 28 28 28 28 28 28 26 26 26 27 27 24 23 24 23 21 21 21 20 20 18 19 19 19 19 18 18 18 18 17 16 16 15 15 15 15 14 14 14 14 14 14 14 14 14 14
22 26 28 28 28 28 28 27 27 27 28 27 26 27 25 22 21 21 21 21 21 20 20 18 19 19 19 19 18 18 18 17 16 16 16 16 15 15 14 15 14 14 14 14 14 14 14 13 13
26 26 28 28 28 28 28 26 27 28 27 26 26 26 25 21 21 21 21 21 21 20 19 18 18 18 18 18 18 18 17 16 16 16 16 16 16 15 15 14 14 14 13 13 13 13 13 13 13
26 28 28 28 28 28 28 26 27 27 27 27 27 27 25 22 20 20 20 20 20 19 19 19 18 17 18 18 17 17 17 16 16 16 16 16 16 15 15 15 15 15 15 14 13 13 12 14 15
26 27 27 28 28 29 27 26 25 27 27 24 25 28 27 24 19 19 19 19 19 19 18 18 18 18 17 16 17 17 16 16 16 16 16 15 15 15 15 14 14 14 14 14 13 13 14 14 14
23 26 27 28 27 28 26 26 24 24 26 24 25 25 23 22 18 18 19 18 18 18 18 18 18 17 17 17 16 16 16 16 16 15 15 15 14 14 14 15 14 14 14 14 14 13 13 13 13
25 26 27 28 28 28 26 25 26 25 25 25 24 22 20 19 19 19 20 20 19 19 18 17 17 17 16 16 16 15 15 15 15 14 14 14 14 14 14 14 14 14 14 14 13 13 13 13 13
24 26 27 25 25 25 25 24 25 26 26 27 27 25 21 20 20 20 21 21 20 19 18 17 16 16 16 16 15 15 15 15 14 14 14 14 14 14 14 13 13 12 13 13 12 13 13 12 13
23 24 24 23 22 23 24 24 24 25 27 24 25 26 22 21 21 21 21 20 19 18 17 16 16 16 16 15 15 15 15 15 15 14 14 14 14 14 14 14 13 13 12 13 12 12 13 12 13
23 24 23 22 21 22 22 24 25 24 26 23 22 22 22 23 22 21 20 19 19 18 17 16 16 15 15 15 15 15 15 15 14 14 13 13 14 14 13 13 13 12 12 12 12 12 12 13 13
24 22 22 21 22 22 23 24 22 24 22 23 22 23 23 23 22 20 19 18 17 17 16 15 16 14 14 15 14 14 14 14 14 14 13 13 13 13 13 13 13 12 11 11 11 12 12 12 13
21 22 21 22 22 23 22 24 23 25 21 23 23 24 23 22 21 20 19 18 17 17 15 15 14 14 14 14 14 14 14 14 13 13 13 12 12 12 12 12 12 12 11 11 11 12 12 12 12
22 23 24 22 21 21 21 27 26 22 22 24 23 24 22 22 21 20 18 17 16 15 15 14 14 14 14 14 14 13 13 13 13 13 12 12 12 12 12 12 12 11 11 11 11 11 12 12 12
22 23 24 23 20 21 23 27 25 21 21 23 23 23 23 23 21 20 18 17 15 15 15 14 14 13 13 13 13 13 14 13 13 12 12 12 12 11 11 11 11 11 11 11 10 11 11 11 12
22 24 23 25 21 20 22 24 25 22 22 23 24 24 24 23 23 21 18 16 15 15 14 14 14 13 13 13 14 13 13 13 12 12 12 12 11 11 11 11 11 10 11 11 11 11 11 10 10
24 24 24 22 18 21 23 24 25 25 23 24 25 25 25 24 23 21 18 16 15 14 14 14 14 13 13 13 14 14 14 13 12 12 12 12 11 11 11 11 10 10 10 10 10 10 10 11 10
22 23 23 19 17 19 21 22 25 25 24 25 25 25 23 23 21 19 18 16 15 14 14 14 13 13 13 13 12 13 13 12 12 13 12 11 10 10 10 10 10 10 10 10 10 10 10 11 9
19 22 21 21 18 17 20 24 26 24 22 21 20 19 19 19 19 19 17 16 15 15 14 14 13 13 12 12 13 13 13 13 12 12 11 10 11 10 10 10 10 10 9 10 9 9 9 11 10
20 16 18 18 20 22 18 24 26 26 24 22 21 19 18 18 18 17 17 16 15 15 14 13 13 12 12 13 12 13 14 14 13 11 11 10 11 10 10 10 9 9 9 9 9 9 9 9 10
17 16 17 17 19 18 20 20 26 23 25 22 20 19 18 17 17 17 16 16 15 14 13 13 12 12 12 13 12 12 12 12 11 11 11 11 10 11 11 10 9 9 9 9 8 8 9 9 9
13 16 16 16 18 18 19 19 25 26 21 21 20 19 17 17 16 16 14 14 14 13 13 12 12 12 12 11 12 12 12 12 11 11 11 11 10 10 9 9 9 9 9 8 8 8 8 8 8
15 16 15 16 17 21 10 15 24 20 17 17 17 18 17 16 17 16 16 14 14 14 13 12 12 12 12 11 11 12 11 11 11 11 11 11 11 10 10 9 9 9 8 8 8 8 8 8 8
14 14 18 19 20 21 10 16 22 15 15 15 15 16 16 17 16 16 15 14 14 14 13 13 13 13 12 12 12 12 12 11 11 11 11 11 10 10 10 9 9 8 8 8 8 7 7 7 7
14 14 13 11 7 17 19 19 17 15 15 16 16 16 16 16 15 15 15 14 14 14 13 13 13 13 12 12 11 11 11 11 11 11 11 10 10 10 10 10 9 8 8 8 8 8 8 7 8
13 12 15 14 17 18 19 19 19 15 15 15 16 15 15 14 14 14 13 13 12 12 12 12 12 12 13 12 11 11 11 10 10 10 10 10 10 10 10 10 10 9 8 8 8 8 8 7 8
12 13 12 14 15 18 19 20 14 11 14 15 14 13 13 13 13 13 12 12 11 11 11 11 11 11 12 11 11 11 11 10 10 11 10 9 9 10 10 9 9 9 8 8 8 8 8 7 7
12 14 16 18 14 12 14 16 15 14 14 13 13 12 12 12 11 11 11 10 10 10 10 10 10 10 10 11 11 11 10 10 10 10 9 9 9 9 9 8 8 8 8 8 8 8 8 8 8

GFSSGP_925_temp_219.txt.gz
Temp
22 23 24 25 27 29 31 31 32 31 31 31 32 31 31 30 29 27 26 25 24 24 22 19 19 19 19 18 18 18 18 18 18 18 17 17 16 16 16 16 16 16 16 16 16 16 15 15 15
21 24 25 29 28 29 31 32 31 31 31 30 30 30 31 29 28 26 25 25 24 24 22 21 19 19 19 18 18 18 18 18 18 18 17 16 16 16 15 15 15 15 15 15 15 15 15 15 15
22 23 28 29 30 29 30 31 32 30 29 30 30 30 30 28 28 26 25 24 24 23 23 20 19 19 18 18 18 18 18 18 17 17 16 16 16 15 15 15 15 15 15 15 15 15 14 14 14
25 26 28 28 29 31 30 31 31 29 28 30 31 30 28 26 27 26 24 24 23 23 22 20 19 18 18 18 18 18 18 17 17 16 16 16 15 15 15 15 15 14 14 14 14 14 14 14 14
25 28 29 29 30 31 31 30 30 29 30 29 30 29 28 25 24 24 24 24 24 23 21 18 18 18 18 18 18 18 17 17 17 16 16 16 16 15 14 14 14 14 14 14 14 14 14 13 14
26 29 28 29 30 31 31 30 30 30 30 29 29 29 27 24 24 24 24 24 24 23 21 18 18 18 18 18 18 18 17 17 16 16 16 16 16 15 15 15 15 14 14 13 13 13 13 13 13
25 28 28 30 31 31 31 30 29 30 29 29 30 29 27 25 25 24 24 24 23 22 21 20 18 17 18 18 18 17 17 16 16 16 16 16 16 16 15 15 15 15 14 14 14 14 14 15 15
27 28 28 30 30 30 30 29 30 30 29 28 28 29 28 26 23 23 23 23 22 21 21 21 20 19 18 16 17 17 17 16 16 16 16 16 15 15 15 15 15 15 15 14 14 14 14 15 15
25 26 28 29 30 31 30 29 28 28 29 28 27 28 26 25 21 21 22 22 21 21 21 20 20 19 19 19 16 16 16 16 16 15 15 15 16 16 15 15 15 14 14 14 14 14 14 14 15
24 26 28 31 31 31 29 29 28 27 28 28 27 25 24 22 21 22 22 22 21 20 20 20 20 19 19 19 18 17 16 16 16 16 16 16 16 15 15 14 14 14 14 14 14 13 14 14 15
25 26 28 29 29 28 29 27 28 27 28 29 29 27 24 23 22 22 23 23 22 21 20 19 19 19 18 18 18 18 17 17 16 16 15 16 15 15 16 16 15 14 14 14 14 14 15 14 15
25 27 28 28 26 26 27 28 26 27 29 28 29 29 25 24 23 23 23 23 23 22 20 18 18 17 17 17 17 18 17 17 17 16 15 16 16 16 16 16 15 15 14 14 14 14 15 14 15
24 27 27 26 24 25 25 26 27 27 28 26 26 26 26 25 25 24 23 23 22 20 19 18 17 17 17 16 17 17 17 17 17 16 15 15 15 16 15 15 15 14 14 14 14 14 14 14 14
25 26 26 24 25 25 25 27 24 28 29 27 26 26 26 26 25 24 23 22 21 20 19 18 17 17 17 17 16 17 16 16 15 16 15 14 14 15 14 14 15 14 13 13 13 13 14 14 14
25 24 24 24 25 26 25 26 24 28 25 26 26 27 26 26 25 24 22 21 20 20 19 17 17 16 16 16 16 16 16 15 15 15 15 14 14 14 14 14 14 14 13 13 13 13 13 14 14
23 24 24 26 25 24 24 27 30 29 25 26 27 28 26 26 25 24 22 20 20 19 18 17 16 16 16 16 15 16 15 15 15 15 14 14 13 13 13 13 13 13 12 13 12 13 13 13 13
24 23 24 24 25 25 24 27 29 26 24 26 27 27 27 26 25 24 22 20 19 18 17 16 16 15 15 15 15 15 15 15 15 14 14 14 14 13 13 13 13 13 12 12 12 12 12 12 13
22 24 25 26 23 23 25 26 28 26 25 26 27 27 27 27 26 24 22 19 18 17 17 16 16 15 15 14 14 15 15 14 14 14 14 13 13 13 12 13 13 12 12 13 12 12 12 12 12
25 25 26 27 22 24 25 26 28 29 28 27 27 27 28 27 27 25 23 20 18 17 16 16 16 15 14 14 15 16 16 15 14 14 13 13 12 12 12 12 12 12 12 12 12 12 12 12 11
22 25 26 23 21 22 26 26 27 28 28 28 28 28 28 27 26 23 22 20 18 17 16 16 15 15 14 15 15 15 15 14 14 13 12 12 12 12 12 12 12 12 12 12 11 11 11 12 11
22 24 25 24 21 22 23 25 27 28 28 28 24 23 22 23 23 23 21 21 18 17 16 16 15 15 14 14 13 13 13 13 13 13 13 12 11 11 11 11 11 12 11 11 11 10 10 11 12
21 20 22 21 22 23 22 24 28 30 26 24 25 22 22 21 21 21 21 20 19 18 16 16 15 15 14 13 13 14 15 16 15 14 13 12 11 11 11 10 11 11 11 11 11 10 10 10 11
20 19 21 20 22 21 22 22 27 28 27 24 23 21 21 20 20 20 19 19 19 17 16 15 15 14 14 13 13 14 14 14 14 13 12 12 12 11 11 10 10 10 10 10 10 10 10 10 10
17 19 19 20 20 18 24 23 26 28 27 24 23 21 20 19 19 18 17 17 18 16 15 14 14 14 14 13 13 13 13 14 13 13 13 13 12 12 11 10 10 10 10 10 10 9 9 9 9
17 16 16 16 15 21 13 18 25 23 20 21 20 20 20 19 19 19 18 16 17 15 15 14 14 14 14 13 13 12 13 13 13 13 13 13 13 12 11 10 10 10 10 9 9 9 9 8 8
16 15 16 17 20 22 13 17 23 19 18 19 18 19 19 19 18 18 17 17 17 16 15 15 15 14 14 13 13 12 12 12 12 13 13 13 12 12 11 10 10 10 10 9 9 9 8 8 8
16 15 16 14 13 19 21 21 20 17 18 18 18 19 18 17 17 17 16 16 16 16 15 15 15 15 14 14 13 13 12 12 12 12 12 12 12 11 11 10 10 10 10 9 9 9 9 9 9
14 15 17 15 17 19 21 22 21 17 18 18 18 18 17 16 16 15 15 14 14 14 14 14 14 14 14 14 13 13 13 12 12 11 11 11 11 11 10 10 10 10 10 10 9 9 9 9 9
14 15 15 16 18 19 21 21 16 11 17 18 17 16 15 15 14 14 13 13 12 12 12 12 12 12 13 13 13 13 13 12 12 11 11 11 11 11 10 10 10 10 10 10 9 9 9 9 9
14 17 19 18 17 16 17 17 18 16 17 17 15 15 14 13 13 13 12 11 11 11 11 10 10 10 11 11 12 12 12 12 11 11 11 10 10 10 10 10 10 10 9 9 9 9 9 9 9

GFSSGP_925_temp_222.txt.gz
Temp
23 24 24 24 23 24 26 29 30 30 31 31 30 29 27 27 26 23 26 25 23 21 20 20 19 19 19 18 18 18 18 18 18 18 17 16 16 16 16 16 16 15 15 15 15 15 15 15 15
23 23 24 22 24 25 26 30 30 29 29 29 29 30 29 26 26 24 24 25 24 22 20 20 19 19 18 18 18 18 18 18 18 17 16 16 16 16 15 15 15 15 15 15 15 15 15 14 14
22 24 23 23 25 25 27 31 28 28 29 29 28 29 28 26 25 25 25 25 24 22 21 20 19 19 18 18 18 18 18 18 17 17 16 16 16 15 15 15 15 14 14 14 14 14 14 14 14
24 24 23 24 25 28 30 30 28 27 28 29 29 25 25 26 27 25 25 24 23 22 21 20 19 19 18 18 19 18 18 17 17 17 16 15 15 15 15 14 14 14 14 14 14 14 14 14 13
24 22 24 24 26 28 31 29 30 27 27 28 30 26 23 25 25 25 24 24 23 21 21 19 19 18 18 18 18 18 18 17 17 17 17 17 16 16 16 15 15 14 14 14 14 13 13 13 15
21 23 24 24 27 30 31 28 29 29 29 27 28 26 24 24 24 24 24 24 23 21 20 19 18 18 18 18 18 18 17 17 17 17 17 16 16 16 16 16 15 15 15 15 14 14 13 13 13
21 22 24 25 27 29 30 29 28 28 28 27 29 27 23 24 24 24 24 24 23 21 20 19 18 18 18 18 18 17 17 17 17 17 16 16 16 16 16 15 15 15 15 15 15 15 14 14 15
22 23 23 26 27 30 28 28 29 29 28 28 27 26 22 24 24 24 24 24 23 22 20 19 18 18 18 18 17 17 17 17 16 16 16 16 16 15 15 15 15 15 15 15 15 15 15 15 15
21 22 23 25 26 29 28 28 28 27 26 28 27 25 25 24 24 24 24 23 22 21 21 20 20 19 18 18 17 17 17 16 16 16 16 16 16 16 15 15 15 15 14 14 14 14 14 14 14
21 22 24 25 28 28 28 28 26 27 27 26 24 24 23 22 22 22 22 22 21 21 21 20 20 19 19 19 18 17 16 16 16 16 16 16 16 15 15 15 15 14 14 14 14 14 14 14 14
22 22 25 24 26 26 27 27 28 26 26 27 24 22 21 20 21 21 22 22 21 21 20 20 20 19 19 19 18 17 17 16 16 16 15 15 15 16 16 16 15 14 14 14 14 14 14 14 14
22 24 25 24 25 26 26 28 26 26 26 25 26 23 22 21 20 21 22 22 21 21 20 20 19 18 18 18 18 18 17 17 17 16 15 15 15 16 16 15 15 15 14 14 14 14 14 14 14
22 23 25 25 24 25 24 25 26 25 25 25 24 24 21 21 21 22 23 23 22 21 20 19 18 17 17 17 17 17 17 17 17 16 15 15 15 15 15 15 15 14 14 13 13 13 13 14 14
23 24 24 24 23 25 24 25 25 25 26 24 24 24 22 22 23 23 23 23 22 21 20 18 17 17 17 17 17 17 17 16 16 16 15 15 14 14 14 14 14 14 13 13 13 13 13 13 14
23 22 23 23 24 23 21 23 22 25 26 25 24 23 23 23 24 23 23 22 21 20 19 18 17 17 17 17 16 16 16 16 15 15 15 14 14 14 13 13 13 13 13 13 12 12 13 13 13
21 22 20 22 23 22 20 23 23 23 23 23 24 23 23 23 24 24 23 22 21 20 19 18 17 16 16 16 16 16 15 15 15 15 14 14 14 13 13 13 13 13 12 12 12 12 12 12 12
20 18 20 22 23 22 21 24 26 23 23 23 24 23 23 22 23 24 22 21 20 19 18 17 16 16 16 16 16 15 15 15 15 15 14 14 13 13 13 13 13 13 12 12 12 12 12 12 12
18 19 21 22 22 22 21 22 23 23 23 23 24 24 24 23 21 24 22 20 19 18 17 17 16 15 15 15 15 15 15 15 15 14 14 14 13 13 12 12 13 12 12 12 12 12 12 12 12
20 21 21 23 22 21 21 21 23 23 22 22 22 24 24 23 23 24 22 19 18 18 17 16 15 15 15 14 14 15 15 15 14 14 14 13 13 13 12 12 12 12 12 12 11 11 11 12 12
19 20 21 20 21 21 21 21 23 24 24 24 24 23 22 23 20 21 21 19 18 17 17 16 16 15 15 15 15 15 15 15 14 14 13 13 13 12 12 12 12 12 11 11 11 11 10 11 11
19 19 20 21 20 20 22 22 23 24 25 24 21 20 20 19 20 19 20 19 18 17 16 16 15 15 14 15 15 15 14 14 14 14 13 13 13 12 12 11 11 11 11 11 11 10 10 10 11
18 19 20 20 18 17 20 16 21 23 23 21 18 18 18 18 20 20 20 20 18 17 16 16 15 15 14 14 14 14 14 14 14 14 13 13 12 12 12 11 11 11 11 11 10 10 10 10 10
18 18 19 20 19 18 20 15 21 24 21 20 17 17 17 17 17 17 18 19 18 17 16 16 15 15 14 14 14 14 14 14 14 14 13 13 12 12 12 12 11 11 10 10 10 10 10 10 10
17 18 16 16 16 12 20 17 19 22 22 19 17 17 17 17 16 15 17 18 17 16 15 15 15 14 14 13 13 13 14 14 13 13 13 13 13 12 12 12 11 10 10 10 10 10 9 9 9
16 13 12 14 14 14 10 14 19 19 18 18 17 16 16 16 15 14 14 16 16 15 14 14 14 14 14 13 13 13 13 13 13 13 13 13 13 12 12 11 11 10 10 10 10 9 9 9 9
14 13 13 14 13 14 11 13 16 17 17 16 16 15 15 14 13 13 14 15 16 15 14 14 14 14 14 13 13 13 12 13 13 13 13 13 13 12 12 11 11 10 10 10 9 9 9 9 8
14 11 15 11 12 12 12 17 18 16 15 16 16 14 13 13 12 12 13 14 14 15 15 15 15 15 14 14 13 13 13 12 12 12 12 12 12 12 12 11 11 10 10 10 10 9 9 9 9
14 14 13 11 14 14 15 19 15 14 15 15 15 13 13 12 11 11 11 12 12 12 13 13 13 14 14 14 14 13 13 12 12 12 12 11 11 11 11 11 10 10 10 10 10 9 9 9 9
11 11 12 13 13 13 14 14 12 11 13 14 13 13 12 11 10 10 10 11 11 11 10 10 10 11 12 12 13 13 13 12 12 12 11 11 11 11 11 10 10 10 10 10 10 10 9 9 9
14 15 14 12 13 11 10 13 17 12 14 13 13 12 11 10 10 9 9 10 9 9 8 8 8 8 9 10 10 11 11 11 11 11 11 11 10 10 10 10 10 10 10 9 9 9 9 9 9